CEB374 RPVR-RPLL

Flight info

Callsign CEB374
Flight time 0h 37m
Altitude 26000
Route MINOR3B MINOR B473 LAIYA LAIYA3P
Aircraft A20N/M-SDE2E3FGHIRWXY/LB1

Departure

Time 2026-04-16 10:28
Airport Roxas Airport (RPVR)

Arrival

Time 2026-04-16 11:05
Airport Ninoy Aquino International Airport (RPLL)
Time Latitude Longitude Altitude Speed Heading
2026-04-16 10:02 11.60083 122.74931 22 ft 0 kts 265°
2026-04-16 10:23 11.60085 122.74927 22 ft 0 kts 319°
2026-04-16 10:23 11.60095 122.74932 22 ft 2 kts 31°
2026-04-16 10:24 11.60116 122.74936 22 ft 3 kts 346°
2026-04-16 10:24 11.60145 122.74925 22 ft 3 kts 333°
2026-04-16 10:24 11.60171 122.74921 22 ft 3 kts
2026-04-16 10:24 11.60202 122.74926 22 ft 4 kts 11°
2026-04-16 10:25 11.60243 122.74933 22 ft 5 kts
2026-04-16 10:25 11.60285 122.74921 22 ft 5 kts 328°
2026-04-16 10:25 11.60325 122.74892 23 ft 6 kts 323°
2026-04-16 10:25 11.60364 122.74857 23 ft 6 kts 319°
2026-04-16 10:26 11.60409 122.74829 24 ft 6 kts 343°
2026-04-16 10:26 11.60461 122.74813 24 ft 6 kts 325°
2026-04-16 10:26 11.60445 122.74805 24 ft 4 kts 148°
2026-04-16 10:26 11.60441 122.74808 24 ft 0 kts 145°
2026-04-16 10:27 11.60295 122.74915 22 ft 64 kts 142°
2026-04-16 10:28 11.59723 122.75324 22 ft 131 kts 144°
2026-04-16 10:28 11.58777 122.75996 288 ft 161 kts 144°
2026-04-16 10:28 11.57704 122.76746 968 ft 162 kts 135°
2026-04-16 10:28 11.57136 122.77915 1505 ft 166 kts 88°
2026-04-16 10:29 11.57678 122.79184 1886 ft 186 kts 41°
2026-04-16 10:29 11.59020 122.79634 2320 ft 208 kts 355°
2026-04-16 10:29 11.60420 122.78976 2795 ft 234 kts 317°
2026-04-16 10:29 11.61345 122.77549 3568 ft 243 kts 301°
2026-04-16 10:30 11.62139 122.76070 4518 ft 239 kts 306°
2026-04-16 10:30 11.63168 122.74722 5362 ft 239 kts 316°
2026-04-16 10:30 11.64404 122.73583 6089 ft 245 kts 323°
2026-04-16 10:30 11.65759 122.72480 6723 ft 256 kts 322°
2026-04-16 10:31 11.67091 122.71176 7365 ft 269 kts 313°
2026-04-16 10:31 11.68319 122.69630 7944 ft 282 kts 311°
2026-04-16 10:31 11.69744 122.68108 8407 ft 296 kts 323°
2026-04-16 10:31 11.71472 122.66962 9194 ft 296 kts 332°
2026-04-16 10:32 11.73452 122.65829 10097 ft 296 kts 333°
2026-04-16 10:32 11.75493 122.64628 10735 ft 308 kts 331°
2026-04-16 10:32 11.76224 122.64175 10893 ft 314 kts 331°
2026-04-16 10:32 11.79831 122.61852 11513 ft 345 kts 329°
2026-04-16 10:33 11.82240 122.60256 11908 ft 362 kts 329°
2026-04-16 10:33 11.84476 122.58761 12443 ft 369 kts 329°
2026-04-16 10:33 11.86700 122.57267 13065 ft 372 kts 329°
2026-04-16 10:33 11.88967 122.55742 13732 ft 374 kts 329°
2026-04-16 10:34 11.91310 122.54165 14346 ft 377 kts 329°
2026-04-16 10:34 11.93733 122.52535 14971 ft 380 kts 329°
2026-04-16 10:34 11.96101 122.50941 15571 ft 383 kts 329°
2026-04-16 10:34 11.98485 122.49335 16115 ft 387 kts 329°
2026-04-16 10:35 12.00980 122.47653 16716 ft 389 kts 329°
2026-04-16 10:35 12.03525 122.45938 17289 ft 393 kts 329°
2026-04-16 10:35 12.06083 122.44217 17851 ft 395 kts 329°
2026-04-16 10:35 12.07858 122.43021 18222 ft 398 kts 329°
2026-04-16 10:36 12.11373 122.40652 18922 ft 402 kts 329°
2026-04-16 10:36 12.13932 122.38925 19408 ft 405 kts 328°
2026-04-16 10:36 12.16534 122.37170 19889 ft 409 kts 328°
2026-04-16 10:36 12.19168 122.35391 20369 ft 412 kts 328°
2026-04-16 10:37 12.21763 122.33639 20828 ft 416 kts 328°
2026-04-16 10:37 12.24405 122.31854 21289 ft 419 kts 327°
2026-04-16 10:37 12.27113 122.30024 21749 ft 422 kts 327°
2026-04-16 10:37 12.29949 122.28107 22225 ft 425 kts 327°
2026-04-16 10:38 12.32858 122.26138 22703 ft 428 kts 327°
2026-04-16 10:38 12.35791 122.24154 23179 ft 432 kts 327°
2026-04-16 10:38 12.38739 122.22146 23657 ft 435 kts 326°
2026-04-16 10:38 12.41686 122.20105 24127 ft 437 kts 326°
2026-04-16 10:39 12.43681 122.18719 24442 ft 439 kts 326°
2026-04-16 10:39 12.47571 122.16014 25033 ft 442 kts 326°
2026-04-16 10:39 12.50493 122.13984 25463 ft 445 kts 326°
2026-04-16 10:39 12.53414 122.11951 25826 ft 447 kts 326°
2026-04-16 10:40 12.56217 122.10001 25874 ft 448 kts 326°
2026-04-16 10:40 12.59246 122.07896 25879 ft 448 kts 326°
2026-04-16 10:40 12.62125 122.05894 25880 ft 448 kts 326°
2026-04-16 10:40 12.65005 122.03891 25881 ft 448 kts 326°
2026-04-16 10:41 12.67844 122.01916 25881 ft 448 kts 326°
2026-04-16 10:41 12.70706 121.99925 25881 ft 448 kts 326°
2026-04-16 10:41 12.73557 121.97939 25885 ft 448 kts 326°
2026-04-16 10:41 12.76439 121.95933 25889 ft 448 kts 326°
2026-04-16 10:42 12.79426 121.93853 25888 ft 447 kts 326°
2026-04-16 10:42 12.82424 121.91764 25884 ft 447 kts 326°
2026-04-16 10:42 12.85397 121.89691 25884 ft 447 kts 326°
2026-04-16 10:42 12.88362 121.87624 25885 ft 447 kts 326°
2026-04-16 10:43 12.91363 121.85529 25885 ft 447 kts 326°
2026-04-16 10:43 12.94299 121.83482 25883 ft 447 kts 326°
2026-04-16 10:43 12.97297 121.81390 25885 ft 447 kts 326°
2026-04-16 10:43 13.00275 121.79311 25888 ft 447 kts 326°
2026-04-16 10:44 13.03279 121.77215 25891 ft 447 kts 326°
2026-04-16 10:44 13.06286 121.75114 25896 ft 447 kts 326°
2026-04-16 10:44 13.09247 121.73046 25898 ft 447 kts 326°
2026-04-16 10:44 13.12236 121.70957 25895 ft 447 kts 326°
2026-04-16 10:45 13.15005 121.69021 25895 ft 447 kts 326°
2026-04-16 10:45 13.17897 121.66997 25859 ft 448 kts 326°
2026-04-16 10:45 13.20704 121.65034 25150 ft 450 kts 326°
2026-04-16 10:45 13.23650 121.62972 24370 ft 449 kts 326°
2026-04-16 10:46 13.26548 121.60943 23631 ft 446 kts 326°
2026-04-16 10:46 13.29420 121.58931 22918 ft 442 kts 326°
2026-04-16 10:46 13.32267 121.56936 22202 ft 439 kts 326°
2026-04-16 10:46 13.35194 121.55117 21701 ft 428 kts 339°
2026-04-16 10:47 13.38404 121.54205 21514 ft 419 kts 349°
2026-04-16 10:47 13.41646 121.53542 21251 ft 417 kts 349°
2026-04-16 10:47 13.44929 121.52856 20981 ft 415 kts 349°
2026-04-16 10:47 13.48032 121.52159 20726 ft 413 kts 348°
2026-04-16 10:48 13.51068 121.51444 20518 ft 411 kts 348°
2026-04-16 10:48 13.54153 121.50702 20336 ft 410 kts 348°
2026-04-16 10:48 13.57342 121.49927 20177 ft 397 kts 348°
2026-04-16 10:48 13.60299 121.49229 20032 ft 376 kts 350°
2026-04-16 10:49 13.63142 121.48673 19689 ft 358 kts 351°
2026-04-16 10:49 13.64944 121.48338 19473 ft 345 kts 351°
2026-04-16 10:49 13.68463 121.47683 19076 ft 334 kts 352°
2026-04-16 10:49 13.71002 121.47205 18875 ft 334 kts 352°
2026-04-16 10:50 13.73525 121.46728 18619 ft 332 kts 351°
2026-04-16 10:50 13.76056 121.46244 18372 ft 330 kts 351°
2026-04-16 10:50 13.78548 121.45766 18114 ft 329 kts 352°
2026-04-16 10:50 13.81058 121.45285 17862 ft 327 kts 352°
2026-04-16 10:51 13.83571 121.44802 17659 ft 327 kts 352°
2026-04-16 10:51 13.86166 121.44304 17446 ft 326 kts 352°
2026-04-16 10:51 13.88671 121.43822 17232 ft 324 kts 352°
2026-04-16 10:51 13.91174 121.43340 16973 ft 322 kts 352°
2026-04-16 10:52 13.93695 121.42856 16709 ft 320 kts 352°
2026-04-16 10:52 13.96191 121.42376 16445 ft 319 kts 352°
2026-04-16 10:52 13.98722 121.41889 16177 ft 318 kts 352°
2026-04-16 10:52 14.01257 121.41401 15909 ft 317 kts 352°
2026-04-16 10:53 14.03744 121.40921 15636 ft 316 kts 352°
2026-04-16 10:53 14.06220 121.40443 15370 ft 315 kts 352°
2026-04-16 10:53 14.08666 121.39973 15102 ft 314 kts 352°
2026-04-16 10:53 14.11127 121.39474 14833 ft 313 kts 349°
2026-04-16 10:54 14.13544 121.38783 14507 ft 312 kts 346°
2026-04-16 10:54 14.15941 121.38042 14059 ft 312 kts 346°
2026-04-16 10:54 14.18312 121.37318 13559 ft 312 kts 346°
2026-04-16 10:54 14.20723 121.36595 13030 ft 313 kts 347°
2026-04-16 10:55 14.23107 121.35889 12509 ft 314 kts 346°
2026-04-16 10:55 14.25497 121.35185 11982 ft 311 kts 347°
2026-04-16 10:55 14.27861 121.34488 11452 ft 301 kts 346°
2026-04-16 10:55 14.30164 121.33809 11055 ft 284 kts 346°
2026-04-16 10:56 14.32309 121.33176 10726 ft 269 kts 346°
2026-04-16 10:56 14.34394 121.32562 10493 ft 258 kts 346°
2026-04-16 10:56 14.36328 121.31992 10225 ft 249 kts 347°
2026-04-16 10:56 14.38173 121.31449 9936 ft 242 kts 347°
2026-04-16 10:57 14.40025 121.30904 9412 ft 240 kts 347°
2026-04-16 10:57 14.41900 121.30346 8846 ft 239 kts 347°
2026-04-16 10:57 14.43803 121.29782 8292 ft 237 kts 346°
2026-04-16 10:57 14.45677 121.29226 7723 ft 235 kts 346°
2026-04-16 10:58 14.47462 121.28696 7181 ft 233 kts 346°
2026-04-16 10:58 14.49245 121.28137 6710 ft 234 kts 340°
2026-04-16 10:58 14.50913 121.27312 6286 ft 231 kts 333°
2026-04-16 10:58 14.52523 121.26369 5867 ft 230 kts 332°
2026-04-16 10:59 14.54060 121.25456 5453 ft 229 kts 331°
2026-04-16 10:59 14.55518 121.24596 5046 ft 223 kts 331°
2026-04-16 10:59 14.56991 121.23732 4685 ft 217 kts 331°
2026-04-16 10:59 14.58401 121.22907 4348 ft 213 kts 330°
2026-04-16 11:00 14.59816 121.22073 4023 ft 213 kts 327°
2026-04-16 11:00 14.60832 121.20953 3629 ft 214 kts 287°
2026-04-16 11:00 14.60825 121.19458 3294 ft 210 kts 243°
2026-04-16 11:00 14.60047 121.18219 3060 ft 198 kts 234°
2026-04-16 11:01 14.59320 121.17063 2979 ft 190 kts 237°
2026-04-16 11:01 14.58653 121.15922 2892 ft 178 kts 238°
2026-04-16 11:01 14.58055 121.14867 2717 ft 162 kts 239°
2026-04-16 11:01 14.57498 121.13873 2456 ft 154 kts 239°
2026-04-16 11:02 14.56967 121.12923 2254 ft 151 kts 239°
2026-04-16 11:02 14.56437 121.11972 2057 ft 151 kts 239°
2026-04-16 11:02 14.55916 121.11036 1850 ft 141 kts 239°
2026-04-16 11:02 14.55438 121.10173 1660 ft 136 kts 240°
2026-04-16 11:03 14.54967 121.09322 1487 ft 135 kts 240°
2026-04-16 11:03 14.54493 121.08467 1303 ft 135 kts 239°
2026-04-16 11:03 14.53509 121.06709 902 ft 132 kts 240°
2026-04-16 11:04 14.53019 121.05842 725 ft 131 kts 240°
2026-04-16 11:04 14.52542 121.04987 528 ft 130 kts 242°
2026-04-16 11:04 14.52076 121.04149 362 ft 129 kts 241°
2026-04-16 11:04 14.51616 121.03320 216 ft 129 kts 242°
2026-04-16 11:05 14.51172 121.02507 85 ft 125 kts 238°
2026-04-16 11:05 14.50806 121.01855 83 ft 79 kts 242°
2026-04-16 11:05 14.50599 121.01480 83 ft 43 kts 240°
2026-04-16 11:05 14.50536 121.01297 83 ft 23 kts 262°
2026-04-16 11:06 14.50524 121.01194 83 ft 9 kts 269°
2026-04-16 11:06 14.50530 121.01173 83 ft 9 kts 304°
2026-04-16 11:06 14.50597 121.01188 83 ft 8 kts 53°
2026-04-16 11:07 14.50668 121.01315 83 ft 8 kts 62°
2026-04-16 11:07 14.50701 121.01374 83 ft 9 kts 61°
2026-04-16 11:07 14.50738 121.01443 83 ft 11 kts 60°
2026-04-16 11:07 14.50779 121.01517 83 ft 12 kts 60°
2026-04-16 11:08 14.50826 121.01599 83 ft 13 kts 60°
2026-04-16 11:08 14.50877 121.01691 83 ft 14 kts 60°
2026-04-16 11:08 14.50933 121.01791 83 ft 15 kts 60°
2026-04-16 11:08 14.50989 121.01892 83 ft 16 kts 60°
2026-04-16 11:09 14.51041 121.01985 83 ft 7 kts 60°
2026-04-16 11:09 14.51084 121.01982 83 ft 7 kts 310°
2026-04-16 11:09 14.51124 121.01932 83 ft 8 kts 312°
2026-04-16 11:09 14.51173 121.01881 83 ft 10 kts 316°
2026-04-16 11:10 14.51231 121.01822 83 ft 11 kts 314°
2026-04-16 11:10 14.51293 121.01759 83 ft 12 kts 315°
2026-04-16 11:10 14.51362 121.01687 83 ft 14 kts 312°
2026-04-16 11:10 14.51426 121.01620 83 ft 9 kts 323°
2026-04-16 11:11 14.51484 121.01631 83 ft 9 kts 45°
2026-04-16 11:11 14.51529 121.01680 83 ft 9 kts 45°
2026-04-16 11:11 14.51577 121.01727 83 ft 9 kts 42°
2026-04-16 11:11 14.51625 121.01774 83 ft 9 kts 39°
2026-04-16 11:12 14.51686 121.01784 83 ft 8 kts 330°
2026-04-16 11:12 14.51713 121.01743 83 ft 4 kts 258°
2026-04-16 11:12 14.51711 121.01712 83 ft 3 kts 246°
2026-04-16 11:12 14.51689 121.01698 83 ft 3 kts 200°
2026-04-16 11:13 14.51666 121.01689 83 ft 3 kts 201°
2026-04-16 11:13 14.51660 121.01686 83 ft 0 kts 205°